This demonstration page uses our WeatherBlox Daily Observations layout. Learn more.

Left ArrowRight Arrow

Hourly Observations for March 22, 2015

Temp ( °F °C ) Dew Point ( °F °C ) Humidity (%) Winds ( mph kmh ) Pressure ( in mb ) Visibility ( mi km ) Precip ( " mm )
12:53 am 00:53 Clear 41 5 28 -2.2 60 60 SW 13 20 29.96 1015 10 16 N/A
1:53 am 01:53 Clear 36 2.2 28 -2.2 73 73 WSW 10 17 29.96 1015 10 16 N/A
2:53 am 02:53 Clear 40 4.4 26 -3.3 58 58 SW 15 24 29.96 1014 10 16 N/A
3:53 am 03:53 Clear 40 4.4 25 -3.9 55 55 SW 17 28 29.96 1015 10 16 N/A
4:53 am 04:53 Clear 38 3.3 24 -4.4 57 57 SW 18 30 29.98 1015 10 16 N/A
5:53 am 05:53 Clear 38 3.3 24 -4.4 57 57 SW 16 26 30.00 1016 10 16 N/A
6:53 am 06:53 Clear 35 1.7 24 -4.4 64 64 WSW 13 20 30.04 1017 10 16 N/A
7:53 am 07:53 Sunny 31 -0.6 27 -2.8 85 85 W 10 17 30.08 1019 10 16 N/A
8:53 am 08:53 Sunny 35 1.7 30 -1.1 82 82 WNW 8 13 30.09 1019 10 16 N/A
9:53 am 09:53 Sunny 38 3.3 31 -0.6 76 76 NW 13 20 30.10 1019 10 16 N/A
10:53 am 10:53 Sunny 41 5 28 -2.2 60 60 W 9 15 30.11 1020 10 16 N/A
11:53 am 11:53 Sunny 43 6.1 27 -2.8 53 53 WNW 9 15 30.11 1020 10 16 N/A
12:53 pm 12:53 Sunny 46 7.8 27 -2.8 47 47 W 10 17 30.10 1019 10 16 N/A
1:53 pm 13:53 Sunny 49 9.4 27 -2.8 43 43 undefined N/A 30.10 1019 10 16 N/A
2:53 pm 14:53 Sunny 51 10.6 27 -2.8 39 39 VRB 7 11 30.07 1018 10 16 N/A
3:53 pm 15:53 Sunny 53 11.7 27 -2.8 37 37 NW 9 15 30.05 1018 10 16 N/A
4:53 pm 16:53 Sunny 54 12.2 27 -2.8 35 35 NW 6 9 30.04 1017 10 16 N/A
5:53 pm 17:53 Sunny 53 11.7 27 -2.8 37 37 N 6 9 30.04 1017 10 16 N/A
6:53 pm 18:53 Sunny 50 10 27 -2.8 41 41 NE 6 9 30.04 1017 10 16 N/A
7:53 pm 19:53 Clear 44 6.7 28 -2.2 53 53 NNE 9 15 30.06 1018 10 16 N/A
8:53 pm 20:53 Clear 42 5.6 28 -2.2 58 58 NE 8 13 30.06 1018 10 16 N/A
9:53 pm 21:53 Clear 39 3.9 28 -2.2 65 65 ENE 12 19 30.08 1019 10 16 N/A
10:53 pm 22:53 Clear 36 2.2 28 -2.2 73 73 NE 10 17 30.08 1019 10 16 N/A
11:53 pm 23:53 Partly Cloudy 35 1.7 27 -2.8 72 72 ENE 14 22 30.07 1018 10 16 N/A

Powered by AerisWeather